WJA81A RJAA-CYYC

Flight info

Callsign WJA81A
Flight time N/A
Altitude 37000
Route GULBO2 GULBO Y808 NOLAX Y812 ADNAP OTR5 KALNA DCT 42N160E 44N170E 46N180E 48N170W/N0499F370 51N160W 53N150W 54N140W DCT FRIED DCT YYD DCT YXS DCT MATIR Q925 ADVOX ADVOX9
Aircraft B789/H-SDE1E2E3FGHIJ2J3J4J5M1RWXY/LB1D1

Departure

Time N/A
Airport Narita International Airport (RJAA)

Arrival

Time 2026-04-27 04:10
Airport Calgary International Airport (CYYC)
Time Latitude Longitude Altitude Speed Heading
2026-04-27 02:51 54.43851 -128.05783 36883 ft 501 kts 86°
2026-04-27 02:52 54.44034 -127.93814 36879 ft 502 kts 86°
2026-04-27 02:52 54.44203 -127.81817 36875 ft 503 kts 86°
2026-04-27 02:53 54.44362 -127.69817 36881 ft 503 kts 87°
2026-04-27 02:53 54.44509 -127.57826 36874 ft 502 kts 87°
2026-04-27 02:54 54.44643 -127.45835 36878 ft 502 kts 87°
2026-04-27 02:54 54.44766 -127.33845 36876 ft 502 kts 87°
2026-04-27 02:55 54.44876 -127.21855 36868 ft 502 kts 88°
2026-04-27 02:55 54.44975 -127.09864 36866 ft 502 kts 88°
2026-04-27 02:56 54.45062 -126.97938 36863 ft 502 kts 88°
2026-04-27 02:56 54.45137 -126.85915 36882 ft 503 kts 88°
2026-04-27 02:57 54.45201 -126.73900 36888 ft 502 kts 88°
2026-04-27 02:57 54.44926 -126.61931 36886 ft 502 kts 99°
2026-04-27 02:58 54.43518 -126.50234 36893 ft 500 kts 101°
2026-04-27 02:58 54.42184 -126.38527 36895 ft 500 kts 99°
2026-04-27 02:59 54.40813 -126.26814 36919 ft 501 kts 101°
2026-04-27 02:59 54.39423 -126.15097 36925 ft 501 kts 100°
2026-04-27 03:00 54.38036 -126.03367 36929 ft 501 kts 101°
2026-04-27 03:00 54.36634 -125.91750 36936 ft 500 kts 101°
2026-04-27 03:01 54.35226 -125.80082 36943 ft 498 kts 101°
2026-04-27 03:01 54.33802 -125.68463 36948 ft 498 kts 101°
2026-04-27 03:02 54.32369 -125.56810 36950 ft 500 kts 101°
2026-04-27 03:02 54.30920 -125.45161 36956 ft 500 kts 101°
2026-04-27 03:03 54.28729 -125.27704 36968 ft 500 kts 101°
2026-04-27 03:04 54.27254 -125.16086 36967 ft 498 kts 101°
2026-04-27 03:04 54.25782 -125.04576 36976 ft 497 kts 101°
2026-04-27 03:05 54.24293 -124.93032 36982 ft 497 kts 101°
2026-04-27 03:05 54.22792 -124.81488 36983 ft 496 kts 101°
2026-04-27 03:06 54.21282 -124.69971 36991 ft 497 kts 101°
2026-04-27 03:06 54.19760 -124.58449 36991 ft 498 kts 101°
2026-04-27 03:07 54.18222 -124.46901 36998 ft 499 kts 101°
2026-04-27 03:07 54.16670 -124.35348 37001 ft 499 kts 101°
2026-04-27 03:08 54.15111 -124.23824 37011 ft 498 kts 101°
2026-04-27 03:08 54.13545 -124.12339 37000 ft 496 kts 101°
2026-04-27 03:09 54.11973 -124.00898 37001 ft 495 kts 101°
2026-04-27 03:09 54.10391 -123.89477 37007 ft 495 kts 101°
2026-04-27 03:10 54.08804 -123.78095 37009 ft 494 kts 101°
2026-04-27 03:10 54.07211 -123.66764 37017 ft 495 kts 101°
2026-04-27 03:11 54.05597 -123.55360 37017 ft 496 kts 101°
2026-04-27 03:11 54.03966 -123.43936 37036 ft 496 kts 101°
2026-04-27 03:12 54.02334 -123.32581 37019 ft 492 kts 101°
2026-04-27 03:12 54.00699 -123.21282 37022 ft 493 kts 101°
2026-04-27 03:13 53.99048 -123.09969 37021 ft 494 kts 101°
2026-04-27 03:13 53.97384 -122.98636 37025 ft 494 kts 101°
2026-04-27 03:14 53.95708 -122.87306 37031 ft 495 kts 101°
2026-04-27 03:14 53.94022 -122.75995 36962 ft 494 kts 102°
2026-04-27 03:15 53.92326 -122.64690 36967 ft 494 kts 101°
2026-04-27 03:15 53.90632 -122.53488 36954 ft 493 kts 101°
2026-04-27 03:16 53.88764 -122.42314 36974 ft 494 kts 107°
2026-04-27 03:16 53.86369 -122.31379 36989 ft 495 kts 107°
2026-04-27 03:17 53.84022 -122.20408 37013 ft 495 kts 107°
2026-04-27 03:17 53.81636 -122.09458 37028 ft 495 kts 108°
2026-04-27 03:18 53.79255 -121.98533 37048 ft 496 kts 107°
2026-04-27 03:18 53.76852 -121.87571 37041 ft 497 kts 107°
2026-04-27 03:19 53.74451 -121.76701 37028 ft 496 kts 107°
2026-04-27 03:19 53.72036 -121.65793 37023 ft 495 kts 107°
2026-04-27 03:20 53.69616 -121.54943 37020 ft 494 kts 107°
2026-04-27 03:20 53.67185 -121.44082 37036 ft 496 kts 107°
2026-04-27 03:21 53.64730 -121.33183 37029 ft 497 kts 107°
2026-04-27 03:21 53.62264 -121.22286 37037 ft 497 kts 107°
2026-04-27 03:22 53.59804 -121.11476 37040 ft 497 kts 107°
2026-04-27 03:22 53.57319 -121.00607 37037 ft 497 kts 108°
2026-04-27 03:23 53.54829 -120.89776 37031 ft 495 kts 107°
2026-04-27 03:23 53.52346 -120.79028 37039 ft 496 kts 108°
2026-04-27 03:24 53.49838 -120.68229 37036 ft 496 kts 108°
2026-04-27 03:24 53.47321 -120.57441 37035 ft 497 kts 108°
2026-04-27 03:25 53.44788 -120.46643 37054 ft 497 kts 108°
2026-04-27 03:25 53.42240 -120.35834 37045 ft 498 kts 108°
2026-04-27 03:26 53.39683 -120.25039 37046 ft 498 kts 108°
2026-04-27 03:26 53.37112 -120.14247 37081 ft 498 kts 108°
2026-04-27 03:27 53.34543 -120.03516 37047 ft 494 kts 108°
2026-04-27 03:27 53.31985 -119.92873 37043 ft 493 kts 108°
2026-04-27 03:28 53.29409 -119.82212 37060 ft 495 kts 108°
2026-04-27 03:28 53.26819 -119.71548 37067 ft 495 kts 108°
2026-04-27 03:29 53.24230 -119.60938 37071 ft 496 kts 108°
2026-04-27 03:29 53.21613 -119.50267 37078 ft 496 kts 109°
2026-04-27 03:30 53.18992 -119.39629 37087 ft 496 kts 109°
2026-04-27 03:30 53.16357 -119.28987 37095 ft 496 kts 109°
2026-04-27 03:31 53.13716 -119.18374 37087 ft 495 kts 109°
2026-04-27 03:31 53.11070 -119.07791 37103 ft 495 kts 109°
2026-04-27 03:32 53.08416 -118.97224 37095 ft 495 kts 109°
2026-04-27 03:32 53.05752 -118.86666 37097 ft 495 kts 109°
2026-04-27 03:33 53.03089 -118.76168 37103 ft 496 kts 109°
2026-04-27 03:33 53.00397 -118.65600 37105 ft 497 kts 109°
2026-04-27 03:34 52.98137 -118.56769 37099 ft 496 kts 109°
2026-04-27 03:34 52.95448 -118.46305 37095 ft 496 kts 109°
2026-04-27 03:35 52.92734 -118.35798 37091 ft 494 kts 109°
2026-04-27 03:35 52.90021 -118.25335 37093 ft 494 kts 109°
2026-04-27 03:36 52.87290 -118.14854 37095 ft 498 kts 110°
2026-04-27 03:36 52.84531 -118.04322 37106 ft 499 kts 110°
2026-04-27 03:37 52.81760 -117.93786 37098 ft 499 kts 110°
2026-04-27 03:37 52.78985 -117.83284 37111 ft 499 kts 110°
2026-04-27 03:38 52.76196 -117.72778 37114 ft 499 kts 110°
2026-04-27 03:38 52.73398 -117.62288 37108 ft 499 kts 110°
2026-04-27 03:39 52.70620 -117.51921 37129 ft 497 kts 110°
2026-04-27 03:39 52.67812 -117.41484 37127 ft 498 kts 110°
2026-04-27 03:40 52.64984 -117.31026 37131 ft 499 kts 110°
2026-04-27 03:40 52.62155 -117.20610 37149 ft 498 kts 111°
2026-04-27 03:41 52.59320 -117.10217 37156 ft 500 kts 111°
2026-04-27 03:41 52.56458 -116.99770 37155 ft 501 kts 111°
2026-04-27 03:42 52.53595 -116.89381 37179 ft 501 kts 111°
2026-04-27 03:42 52.50716 -116.78961 37165 ft 500 kts 111°
2026-04-27 03:43 52.47823 -116.68553 37168 ft 500 kts 111°
2026-04-27 03:43 52.44928 -116.58172 37164 ft 501 kts 112°
2026-04-27 03:44 52.42019 -116.47796 37167 ft 502 kts 112°
2026-04-27 03:44 52.39094 -116.37404 37169 ft 502 kts 112°
2026-04-27 03:45 52.36182 -116.27106 37169 ft 502 kts 112°
2026-04-27 03:45 52.33245 -116.16762 37165 ft 501 kts 112°
2026-04-27 03:46 52.30299 -116.06435 37155 ft 502 kts 112°
2026-04-27 03:46 52.27344 -115.96123 37150 ft 501 kts 113°
2026-04-27 03:47 52.24386 -115.85842 37151 ft 500 kts 113°
2026-04-27 03:47 52.21412 -115.75553 37151 ft 501 kts 113°
2026-04-27 03:48 52.18428 -115.65273 37143 ft 502 kts 113°
2026-04-27 03:48 52.15446 -115.55042 37155 ft 503 kts 113°
2026-04-27 03:49 52.12431 -115.44746 37124 ft 501 kts 113°
2026-04-27 03:49 52.10935 -115.39656 36428 ft 498 kts 113°
2026-04-27 03:49 52.09437 -115.34567 35705 ft 497 kts 113°
2026-04-27 03:49 52.07946 -115.29509 35029 ft 495 kts 113°
2026-04-27 03:50 52.06457 -115.24475 34341 ft 493 kts 113°
2026-04-27 03:50 52.04976 -115.19476 33555 ft 491 kts 113°
2026-04-27 03:50 52.03494 -115.14489 32785 ft 487 kts 114°
2026-04-27 03:50 52.01741 -115.09788 32026 ft 488 kts 125°
2026-04-27 03:51 51.99450 -115.05706 31252 ft 492 kts 136°
2026-04-27 03:51 51.96720 -115.02323 30504 ft 495 kts 144°
2026-04-27 03:51 51.93871 -114.99202 29677 ft 492 kts 146°
2026-04-27 03:51 51.91063 -114.96113 28875 ft 486 kts 144°
2026-04-27 03:52 51.88316 -114.92958 28123 ft 481 kts 144°
2026-04-27 03:52 51.85610 -114.89840 27386 ft 476 kts 144°
2026-04-27 03:52 51.82936 -114.86844 26627 ft 472 kts 145°
2026-04-27 03:52 51.80235 -114.83850 25899 ft 468 kts 145°
2026-04-27 03:53 51.77575 -114.80863 25204 ft 464 kts 145°
2026-04-27 03:53 51.74940 -114.77878 24514 ft 460 kts 145°
2026-04-27 03:53 51.72325 -114.74939 23828 ft 457 kts 145°
2026-04-27 03:53 51.69721 -114.72036 23060 ft 453 kts 146°
2026-04-27 03:54 51.67141 -114.69161 22342 ft 447 kts 146°
2026-04-27 03:54 51.64607 -114.66327 21660 ft 442 kts 145°
2026-04-27 03:54 51.62097 -114.63526 20999 ft 436 kts 146°
2026-04-27 03:54 51.59619 -114.60770 20364 ft 430 kts 146°
2026-04-27 03:55 51.57185 -114.58022 19745 ft 424 kts 143°
2026-04-27 03:55 51.54850 -114.55201 19232 ft 416 kts 144°
2026-04-27 03:55 51.52533 -114.52571 18725 ft 409 kts 145°
2026-04-27 03:55 51.50226 -114.49939 18167 ft 403 kts 144°
2026-04-27 03:56 51.47991 -114.47288 17601 ft 396 kts 142°
2026-04-27 03:56 51.45989 -114.44316 17057 ft 388 kts 135°
2026-04-27 03:56 51.44095 -114.41285 16576 ft 382 kts 135°
2026-04-27 03:56 51.42222 -114.38321 16076 ft 375 kts 136°
2026-04-27 03:57 51.40355 -114.35422 15592 ft 369 kts 136°
2026-04-27 03:57 51.38527 -114.32585 15127 ft 364 kts 136°
2026-04-27 03:57 51.36728 -114.29771 14664 ft 359 kts 136°
2026-04-27 03:57 51.34954 -114.26994 14211 ft 354 kts 136°
2026-04-27 03:58 51.33203 -114.24268 13719 ft 349 kts 136°
2026-04-27 03:58 51.31478 -114.21591 13165 ft 343 kts 136°
2026-04-27 03:58 51.29772 -114.18956 12684 ft 337 kts 137°
2026-04-27 03:58 51.27827 -114.16966 12129 ft 332 kts 160°
2026-04-27 03:59 51.25600 -114.16317 11663 ft 323 kts 181°
2026-04-27 03:59 51.23379 -114.16342 11299 ft 315 kts 182°
2026-04-27 03:59 51.21208 -114.16371 10915 ft 310 kts 182°
2026-04-27 03:59 51.19068 -114.16369 10524 ft 305 kts 181°
2026-04-27 04:00 51.16960 -114.16357 10105 ft 301 kts 182°
2026-04-27 04:00 51.14874 -114.16354 9705 ft 298 kts 182°
2026-04-27 04:00 51.12822 -114.16355 9355 ft 288 kts 182°
2026-04-27 04:00 51.10859 -114.16354 8983 ft 276 kts 181°
2026-04-27 04:01 51.08976 -114.16353 8623 ft 266 kts 181°
2026-04-27 04:01 51.07177 -114.16352 8278 ft 257 kts 181°
2026-04-27 04:01 51.05429 -114.16350 8058 ft 244 kts 181°
2026-04-27 04:01 51.03795 -114.16346 8004 ft 225 kts 181°
2026-04-27 04:02 51.02279 -114.16342 7976 ft 209 kts 181°
2026-04-27 04:02 51.00882 -114.16339 7938 ft 195 kts 181°
2026-04-27 04:02 50.99536 -114.16338 7902 ft 193 kts 181°
2026-04-27 04:02 50.98197 -114.16335 7874 ft 192 kts 181°
2026-04-27 04:03 50.96857 -114.16333 7864 ft 192 kts 181°
2026-04-27 04:03 50.95544 -114.16330 7526 ft 188 kts 181°
2026-04-27 04:03 50.94229 -114.16328 7073 ft 189 kts 181°
2026-04-27 04:03 50.92933 -114.16294 6739 ft 183 kts 178°
2026-04-27 04:04 50.91810 -114.15454 6289 ft 182 kts 136°
2026-04-27 04:04 50.91280 -114.13722 6259 ft 177 kts 103°
2026-04-27 04:04 50.91293 -114.11752 6382 ft 180 kts 89°
2026-04-27 04:04 50.91299 -114.09765 6544 ft 181 kts 91°
2026-04-27 04:05 50.91291 -114.07726 6586 ft 187 kts 91°
2026-04-27 04:05 50.91290 -114.05711 6579 ft 184 kts 91°
2026-04-27 04:05 50.91431 -114.03707 6469 ft 186 kts 71°
2026-04-27 04:05 50.92336 -114.02351 6318 ft 183 kts 21°
2026-04-27 04:06 50.93583 -114.02165 6386 ft 179 kts 359°
2026-04-27 04:06 50.94805 -114.02147 6534 ft 170 kts 359°
2026-04-27 04:06 50.96006 -114.02146 6508 ft 176 kts 358°
2026-04-27 04:07 50.98453 -114.02148 5989 ft 172 kts 359°
2026-04-27 04:07 50.99647 -114.02149 5742 ft 171 kts 359°
2026-04-27 04:07 51.00839 -114.02151 5495 ft 171 kts 360°
2026-04-27 04:07 51.02022 -114.02149 5240 ft 170 kts
2026-04-27 04:08 51.03207 -114.02139 5006 ft 170 kts
2026-04-27 04:08 51.04382 -114.02139 4772 ft 168 kts
2026-04-27 04:08 51.05557 -114.02137 4467 ft 169 kts
2026-04-27 04:08 51.06704 -114.02136 4202 ft 167 kts
2026-04-27 04:09 51.07864 -114.02138 3940 ft 165 kts
2026-04-27 04:09 51.09015 -114.02140 3724 ft 165 kts
2026-04-27 04:09 51.10153 -114.02139 3581 ft 162 kts
2026-04-27 04:09 51.11245 -114.02137 3563 ft 146 kts
2026-04-27 04:10 51.12125 -114.02134 3563 ft 101 kts 360°
2026-04-27 04:10 51.12651 -114.02133 3555 ft 49 kts
2026-04-27 04:10 51.12908 -114.02134 3555 ft 26 kts
2026-04-27 04:10 51.13024 -114.02134 3558 ft 11 kts
2026-04-27 04:11 51.13084 -114.02132 3558 ft 5 kts 10°
2026-04-27 04:11 51.13092 -114.02122 3558 ft 1 kts 51°
2026-04-27 04:11 51.13094 -114.02109 3561 ft 4 kts 73°
2026-04-27 04:11 51.13098 -114.02045 3559 ft 7 kts 89°
2026-04-27 04:12 51.13098 -114.01957 3558 ft 9 kts 91°
2026-04-27 04:12 51.13092 -114.01850 3560 ft 10 kts 110°
2026-04-27 04:12 51.13046 -114.01799 3557 ft 8 kts 171°
2026-04-27 04:12 51.12990 -114.01795 3556 ft 8 kts 180°
2026-04-27 04:13 51.12932 -114.01795 3557 ft 9 kts 180°
2026-04-27 04:13 51.12866 -114.01796 3559 ft 10 kts 180°
2026-04-27 04:13 51.12801 -114.01796 3558 ft 10 kts 180°
2026-04-27 04:13 51.12728 -114.01796 3558 ft 11 kts 180°
2026-04-27 04:14 51.12652 -114.01792 3560 ft 11 kts 170°
2026-04-27 04:14 51.12608 -114.01743 3560 ft 6 kts 117°
2026-04-27 04:14 51.12601 -114.01673 3555 ft 7 kts 89°
2026-04-27 04:14 51.12601 -114.01596 3559 ft 7 kts 90°
2026-04-27 04:15 51.12601 -114.01509 3559 ft 8 kts 90°
2026-04-27 04:15 51.12602 -114.01415 3562 ft 10 kts 89°
2026-04-27 04:15 51.12604 -114.01272 3565 ft 15 kts 89°
2026-04-27 04:15 51.12610 -114.01078 3557 ft 20 kts 86°
2026-04-27 04:16 51.12619 -114.00841 3565 ft 24 kts 86°
2026-04-27 04:16 51.12621 -114.00609 3565 ft 11 kts 90°
2026-04-27 04:16 51.12621 -114.00466 3565 ft 15 kts 93°
2026-04-27 04:16 51.12613 -114.00275 3565 ft 16 kts 90°
2026-04-27 04:17 51.12629 -114.00173 3558 ft 10 kts 53°
2026-04-27 04:17 51.12695 -114.00144 3562 ft 12 kts
2026-04-27 04:17 51.12758 -114.00145 3559 ft 11 kts 358°
2026-04-27 04:17 51.12775 -114.00146 3560 ft 0 kts 358°
2026-04-27 04:18 51.12791 -114.00147 3557 ft 0 kts 358°